STARLINK-3914, 52490

Orbit data source: Space-Track

STARLINK-3914, 52490 is a payload satellite owned by SpaceX/Seattle (US) in LEO that was launched on Fri, 06 May 2022 UTC via an FALCON 9 launch vehicle from the Air Force Eastern Test Range (AFETR). Payload-class satellites include a variety of spacecraft equipped with specific instruments for various scientific and technological missions. These include communications satellites like Starlink; space stations such as the ISS; scientific satellites like the Hubble; Earth observation satellites from companies like Planet Labs, Umbra, and HawkEye 360; GPS; miniature CubeSats for education and research; and military/defense satellites.

Loading next visibility...
Identifier
52490, 2022-049AR
Orbit
LEO
Country
Flag of USUS
Related business
Manufacturer
SpaceX/Seattle
Mission
Operational Commercial Communications
Bus & Motor
STARLINK, Unknown motor
Mass
297 kg wet, ~220 kg dry
Launch date (UTC)
2022-05-06 (4 years ago)
Launch vehicle
FALCON 9
Launch site
Air Force Eastern Test Range (AFETR)
Object type
Payload
Rocket body
Debris
Shape & HBR
Box + 1 Pan, 10.1 m
Radar Cross Section
13.562 m², Large (>1 m²)

Expand to show TLE details & history
Last TLE update: 21 hours ago

TLE from 21 hours ago
0 STARLINK-3914
1 52490U 22049AR  25349.63672617 -.00007955  00000-0 -48236-3 0  9992
2 52490  53.2178  66.4489 0001484  97.6092 262.5069 15.08833540199708
Epoch: 2025-12-15T15:16Z
TLE epoch observation values (Epoch: 2025-12-15T15:16:53.141Z)
Latitude
0.00002°
Longitude
112.69505°
Altitude
540.795 km
Speed
7.593 km/s
True Right ascension
04h 25m 47s
True Declination
0° 00' 00"
Sunlit
Object was in full shadow at epoch
Visualization orbit readout
Latitude
Unknown
Longitude
Unknown
Altitude
Unknown
Speed
Unknown
Apparent Right ascension
Unknown
Apparent Declination
Unknown
Sunlit
N/A
Visualization observer readout
Local Sidereal Time
10:48:33
Azimuth
Unknown
Elevation
Unknown
Doppler factor
Unknown
Orbital elements
Apogee altitude
541.035 km
Perigee altitude
538.981 km
Semi-major axis
6,918.145 km
Eccentricity
0.00015
Inclination
53.2178°
RAAN
66.4489°
Arg. of periapsis
97.6092°
True anomaly
262.49004°
Mean anomaly
262.5069°
Eccentric anomaly
262.49847°
Mean motion
3.77189 °/min
Orbital period
95.44 mins
BSTAR
-0.00048236
Loading maneuver chart data...
Computing Atmospheric mass density...
Loading historical data...
Loading historical data...
Loading historical data...
Loading historical data...
Loading historical data...
Loading historical data...
Loading historical data...

Documentation

Showing up to 5 results
|